Flag for Canada Weather past 2 weeks in Saskatoon, Saskatchewan, Canada

Now
39 °F

Clear.


Feels Like: 32 °F
Forecast: 27 / 35 °F
Wind: 13 mph from Northwest

Location: Saskatoon Weather Station

Current Time: Jan 25, 2015 at 9:18:39 PM

Latest Report: Jan 25, 2015 at 8:00 PM


Visibility: 15 mi

Pressure: 29.79 "Hg

Humidity: 70%

Dew point: 30 °F

Location of SaskatoonLocation

Historic Weather in Saskatoon — Graph

°F

Saskatoon temperature yesterday

Maximum temperature yesterday: 39 °F (at 12:50 PM)
Minimum temperature yesterday: 23 °F (at 1:00 AM)
Average temperature yesterday: 32 °F

Past Weeks' High & Low Weather Summary

 TemperatureHumidityPressure
High43 °F (Jan 22, 6:00 PM)100% (Jan 15, 5:00 AM)30.71 "Hg (Jan 15, 5:00 AM)
Low-24 °F (Jan 11, 3:00 AM)60% (Jan 17, 2:00 PM)29.44 "Hg (Jan 16, 3:00 PM)
Average20 °F84%30.02 "Hg
* Reported Jan 10 8:00 PM — Jan 25 8:00 PM, Saskatoon, Weather by CustomWeather, © 2014

Note: Actual official high and low records may vary slightly from our data, if they occured in-between our weather recording intervals... More about our weather records

Advertising

Saskatoon weather history for previous 24 hours

 ConditionsComfort  
Time TempWeatherWind HumidityBarometerVisibility
8:00 PM
Jan 25
39 °FClear.13 mph70%29.79 "Hg15 mi
7:00 PM39 °FPassing clouds.14 mph70%29.77 "Hg15 mi
6:00 PM36 °FPassing clouds.10 mph87%29.75 "Hg15 mi
5:00 PM39 °FScattered clouds.12 mph75%29.73 "Hg15 mi
4:00 PM37 °FPartly sunny.13 mph81%29.73 "Hg15 mi
3:00 PM36 °FPartly sunny.15 mph81%29.73 "Hg15 mi
2:47 PM36 °FPartly sunny.15 mph81%29.73 "Hg15 mi
2:00 PM37 °FPartly sunny.17 mph75%29.73 "Hg15 mi
1:00 PM36 °FPartly sunny.15 mph75%29.74 "Hg15 mi
12:00 PM36 °FPartly sunny.15 mph75%29.76 "Hg15 mi
11:00 AM34 °FPartly sunny.18 mph81%29.79 "Hg15 mi
10:00 AM32 °FBroken clouds.16 mph87%29.83 "Hg15 mi
9:00 AM30 °FOvercast.9 mph86%29.87 "Hg15 mi
8:00 AM28 °FOvercast.7 mph93%29.92 "Hg15 mi
7:00 AM28 °FOvercast.10 mph93%29.91 "Hg15 mi
6:00 AM28 °FPassing clouds.9 mph86%29.94 "Hg15 mi
5:00 AM27 °FPassing clouds.10 mph100%29.98 "Hg15 mi
4:00 AM27 °FPassing clouds.7 mph100%29.99 "Hg15 mi
3:00 AM25 °FPassing clouds.7 mph93%30.01 "Hg15 mi
2:00 AM25 °FClear.7 mph93%30.04 "Hg15 mi
1:00 AM27 °FClear.6 mph93%30.03 "Hg15 mi
12:00 AM27 °FPassing clouds.8 mph93%30.05 "Hg15 mi
11:00 PM
Jan 24
30 °FPassing clouds.No wind93%30.03 "Hg15 mi
10:00 PM32 °FPassing clouds.2 mph93%30.03 "Hg15 mi
9:00 PM34 °FPassing clouds.9 mph87%30.00 "Hg15 mi
Weather by CustomWeather, © 2014

See weather overviewHow to use our weather pages